Location: Clyde
(45.1830°S, 169.3170°E)
Time: 13:52:37
(UTC+13:00)

ISS - Visible Passes

Search period start: 24 January 2019 00:00
Search period end: 03 February 2019 00:00
Orbit: 404 x 410 km, 51.6° (Epoch: 24 January)

Date Brightness Start Highest point End Pass type
(mag) Time Alt. Az. Time Alt. Az. Time Alt. Az.
28 Jan -1.1 05:35:33 10° NNE 05:36:41 11° NE 05:37:49 10° ENE visible
30 Jan -2.1 05:27:29 11° NNW 05:30:04 25° NE 05:32:53 10° E visible
31 Jan -1.5 04:38:10 14° NNE 04:38:50 15° NE 04:40:48 10° E visible
01 Feb -3.4 05:21:29 20° NW 05:23:33 55° NE 05:26:51 10° ESE visible
02 Feb -2.7 04:32:02 32° NNE 04:32:11 32° NE 04:35:13 10° ESE visible
02 Feb -3.0 06:05:23 10° W 06:08:39 48° SSW 06:11:56 10° SE visible
